Regional Weather Roundup
Issued by NWS Sioux Falls, SD

Home | Current Version | Previous Version | Text Only | Print | Product List | Glossary On
Versions: 1 2 3 4 5 6 7 8 9 10 11 12 13 14 15 16 17 18 19 20 21 22 23 24 25 26 27 28 29 30 31 32 33 34 35 36 37 38 39 40 41 42 43 44 45 46 47 48 49 50
000
ASUS43 KFSD 201610
RWRFSD

WEATHER ROUNDUP FOR SE SOUTH DAKOTA/SW MINNESOTA/NW IOWA
NATIONAL WEATHER SERVICE SIOUX FALLS SD
1100 AM CDT WED SEP 20 2017

NOTE: "FAIR" INDICATES FEW OR NO CLOUDS BELOW 12,000 FEET WITH NO
SIGNIFICANT WEATHER AND OR OBSTRUCTIONS TO VISIBILITY.


SDZ038>040-050-052>070-201700-
SOUTHEAST SOUTH DAKOTA

CITY           SKY/WX    TMP DP  RH WIND       PRES   REMARKS
BROOKINGS      SUNNY     60  47  61 NW12      29.83R
CHAMBERLAIN    SUNNY     64  46  53 S9        29.87R
HURON          SUNNY     63  44  50 W10       29.84R
MADISON        FAIR      59  50  72 NW12      29.84S
MITCHELL       SUNNY     63  47  55 W15       29.86R
SIOUX FALLS    MOSUNNY   63  50  62 NW15      29.84R
WINNER         FAIR      64  44  48 W10       29.88R
YANKTON        SUNNY     64  50  60 NW14      29.86R
$$

MNZ071-072-080-081-089-090-097-098-201700-
SOUTHWEST MINNESOTA

CITY           SKY/WX    TMP DP  RH WIND       PRES   REMARKS
FAIRMONT       SUNNY     68  55  63 NW16      29.80R
JACKSON        SUNNY     64  54  68 NW9G16    29.82R
LUVERNE        SUNNY     61  46  59 NW12      29.84S
MARSHALL       SUNNY     63  49  60 NW14      29.82R
MONTEVIDEO     MOSUNNY   64  57  77 NW7       29.80R
PIPESTONE      CLOUDY    63  48  59 N14       29.83S
REDWOOD FALLS  SUNNY     65  51  60 MISG      29.79R
TRACY          SUNNY     64  51  64 NW13G18   29.83R
WINDOM         SUNNY     64  52  63 NW14      29.82R
WORTHINGTON    SUNNY     63  51  65 NW14      29.83R
$$

IAZ001>003-012>014-020>022-031-032-NEZ013-014-SDZ071-201700-
NORTHWEST IOWA

CITY           SKY/WX    TMP DP  RH WIND       PRES   REMARKS
CHEROKEE       SUNNY     65  55  70 NW9G18    29.83R
DENISON        SUNNY     70  55  60 N13       29.82S
ESTHERVILLE    SUNNY     66  56  70 NW16      29.80R
LE MARS        SUNNY     66  52  59 NW9G16    29.84R
ORANGE CITY    SUNNY     64  55  72 NW8       29.83R
SHELDON        SUNNY     64  52  63 NW12G18   29.82S
SIOUX CITY     SUNNY     65  54  67 NW12      29.85R
SPENCER        SUNNY     66  54  65 NW16      29.82R
STORM LAKE     SUNNY     68  54  60 NW14      29.82R
$$

ABBREVIATIONS USED IN REMARKS
   TC - TEMPERATURE IN CELSIUS
  WCI - WIND CHILL INDEX
   HX - HEAT INDEX
  VSB - VISIBILITY




USA.gov is the U.S. government's official web portal to all federal, state and local government web resources and services.